VE54 weather

Daltonganj Airport
Bihar, India

Public forecast

Using degrees Celsius for public forecast. Weather courtesy of forecast.io.

METAR (pilot weather report)

Closest report is Gaya Airport, 63.9 nm (118.4 km) NE. Retrieved 2018/12/18 16:00 UTC (40 minutes ago):

VEGY 181600Z 13007KT 1200 MIFG NSC 12/11 Q1019

TAF (pilot weather forecast)

Forecast is more than 12 hours old.

Closest forecast is Gaya Airport, 63.9 nm (118.4 km) NE. Retrieved 2018/05/18 00:00 UTC (7 months ago):

TAF VEGY 182300Z 1900/2006 07008KT 3000 HZ NSC BECMG 1904/1906 10010KT 4000 HZ SCT100 BECMG 1910/1912 05010KT 5000 HZ FEW020 BECMG 1916/1918 09008KT 4000 HZ BECMG 2000/2002 3000 HZ NSC BECMG 2004/2006 4000 HZ FEW020 SCT100